This is the latest recevied weather packets stored in our database for station/object KF0TNT. If no packets are shown the sender has not sent any weather packets the latest 10 day(s).
| Time | Temp. | Humidity | Pressure | Rain* | Wind** | Luminosity | Snow |
|---|---|---|---|---|---|---|---|
| 1778027242 | 0.56° C | 96% | 1013.3 hPa | 0.51 mm | - | 22 W/m² | - |
| 1778026938 | 0.56° C | 96% | 1013.5 hPa | 0.51 mm | - | 24 W/m² | - |
| 1778026634 | 0.56° C | 96% | 1013.5 hPa | 0.51 mm | - | 24 W/m² | - |
| 1778026332 | 0.56° C | 96% | 1013.4 hPa | 1.27 mm | - | 18 W/m² | - |
| 1778026028 | 0.56° C | 96% | 1013.3 hPa | 1.27 mm | - | 16 W/m² | - |
| 1778025726 | 0.56° C | 96% | 1013.3 hPa | 1.27 mm | - | 17 W/m² | - |
| 1778025423 | 1.11° C | 96% | 1012.7 hPa | 0.51 mm | - | 19 W/m² | - |
| 1778025121 | 1.11° C | 97% | 1013.2 hPa | 0 mm | - | 16 W/m² | - |
| 1778024818 | 1.11° C | 97% | 1013.2 hPa | 0 mm | - | 16 W/m² | - |
| 1778024515 | 1.11° C | 96% | 1012.8 hPa | 0 mm | - | 23 W/m² | - |
| 1778024211 | 1.11° C | 96% | 1012.8 hPa | 0.51 mm | - | 22 W/m² | - |
| 1778023909 | 1.11° C | 96% | 1012.7 hPa | 1.27 mm | - | 21 W/m² | - |
| 1778023607 | 1.11° C | 96% | 1012.7 hPa | 0.51 mm | - | 27 W/m² | - |
| 1778023304 | 1.11° C | 97% | 1012.7 hPa | 0 mm | - | 24 W/m² | - |
| 1778023000 | 1.11° C | 96% | 1012.5 hPa | 0.51 mm | - | 34 W/m² | - |
| 1778022700 | 1.11° C | 96% | 1012.4 hPa | 1.27 mm | - | 31 W/m² | - |
| 1778022397 | 1.11° C | 96% | 1012.5 hPa | 1.27 mm | - | 32 W/m² | - |
| 1778022093 | 1.11° C | 96% | 1012.4 hPa | 1.27 mm | - | 45 W/m² | - |
| 1778021790 | 1.11° C | 97% | 1012.2 hPa | 0.51 mm | - | 45 W/m² | - |
| 1778021486 | 1.11° C | 96% | 1012.3 hPa | 0.51 mm | - | 37 W/m² | - |
| 1778021183 | 1.11° C | 96% | 1012 hPa | 0 mm | - | 46 W/m² | - |
| 1778020880 | 1.11° C | 96% | 1012 hPa | 0 mm | - | 44 W/m² | - |
| 1778020577 | 1.11° C | 96% | 1012 hPa | 0.51 mm | - | 55 W/m² | - |
| 1778020273 | 1.11° C | 96% | 1011.9 hPa | 0.51 mm | - | 40 W/m² | - |
| 1778019964 | 1.11° C | 96% | 1012 hPa | 0.51 mm | - | 50 W/m² | - |
* Rain latest hour (hover to see other rain measurements)
** Current wind speed in m/s (hover to see current wind gust speed)